Time,TemperatureF,DewpointF,PressureIn,WindDirection,WindDirectionDegrees,WindSpeedMPH,WindSpeedGustMPH,Humidity,HourlyPrecipIn,Conditions,Clouds,dailyrainin,SoftwareType,DateUTC
2013-03-07 00:06:00,27.8,22.1,30.16,East,89,10.0,14.0,79,0.00,,,0.00,Wunderground v.1.15,2013-03-07 05:06:00,
2013-03-07 00:16:00,28.1,22.1,30.15,ESE,123,10.0,11.0,78,0.00,,,0.00,Wunderground v.1.15,2013-03-07 05:16:00,
2013-03-07 00:36:00,27.9,21.9,30.16,ENE,78,11.0,11.0,78,0.00,,,0.00,Wunderground v.1.15,2013-03-07 05:36:00,
2013-03-07 00:46:00,28.1,21.5,30.16,East,80,11.0,11.0,76,0.00,,,0.00,Wunderground v.1.15,2013-03-07 05:46:00,
2013-03-07 00:56:00,28.1,21.5,30.16,ESE,121,9.0,10.0,76,0.00,,,0.00,Wunderground v.1.15,2013-03-07 05:56:00,
2013-03-07 01:46:00,28.1,21.2,30.17,East,97,11.0,11.0,75,0.00,,,0.00,Wunderground v.1.15,2013-03-07 06:46:00,
2013-03-07 01:56:00,28.1,20.9,30.17,East,91,9.0,11.0,74,0.00,,,0.00,Wunderground v.1.15,2013-03-07 06:56:00,
2013-03-07 02:06:00,28.1,20.6,30.16,ESE,103,11.0,11.0,73,0.00,,,0.00,Wunderground v.1.15,2013-03-07 07:06:00,
2013-03-07 02:16:00,27.9,21.0,30.15,East,86,8.0,10.0,75,0.00,,,0.00,Wunderground v.1.15,2013-03-07 07:16:00,
2013-03-07 02:26:00,28.1,20.6,30.15,ENE,61,8.0,8.0,73,0.00,,,0.00,Wunderground v.1.15,2013-03-07 07:26:00,
2013-03-07 02:36:00,27.9,20.4,30.14,East,79,6.0,6.0,73,0.00,,,0.00,Wunderground v.1.15,2013-03-07 07:36:00,
2013-03-07 02:46:00,27.9,20.7,30.14,East,91,5.0,5.0,74,0.00,,,0.00,Wunderground v.1.15,2013-03-07 07:46:00,
2013-03-07 03:06:00,27.9,20.4,30.13,East,82,7.0,9.0,73,0.00,,,0.00,Wunderground v.1.15,2013-03-07 08:06:00,
2013-03-07 03:16:00,27.9,20.0,30.14,ENE,65,7.0,7.0,72,0.00,,,0.00,Wunderground v.1.15,2013-03-07 08:16:00,
2013-03-07 03:46:00,27.8,20.3,30.14,ESE,113,6.0,6.0,73,0.00,,,0.00,Wunderground v.1.15,2013-03-07 08:46:00,
2013-03-07 03:56:00,27.8,20.3,30.14,ESE,110,5.0,5.0,73,0.00,,,0.00,Wunderground v.1.15,2013-03-07 08:56:00,
2013-03-07 04:36:00,27.6,20.1,30.14,ESE,110,6.0,9.0,73,0.00,,,0.00,Wunderground v.1.15,2013-03-07 09:36:00,
2013-03-07 04:46:00,27.5,20.0,30.13,East,80,7.0,11.0,73,0.00,,,0.00,Wunderground v.1.15,2013-03-07 09:46:00,
2013-03-07 05:06:00,27.2,20.0,30.14,ESE,107,8.0,14.0,74,0.00,,,0.00,Wunderground v.1.15,2013-03-07 10:06:00,
2013-03-07 05:16:00,27.0,20.1,30.13,NE,52,9.0,10.0,75,0.00,,,0.00,Wunderground v.1.15,2013-03-07 10:16:00,
2013-03-07 05:26:00,27.0,20.1,30.13,East,90,8.0,8.0,75,0.00,,,0.00,Wunderground v.1.15,2013-03-07 10:26:00,
2013-03-07 05:36:00,27.0,20.4,30.14,ESE,102,9.0,9.0,76,0.00,,,0.00,Wunderground v.1.15,2013-03-07 10:36:00,
2013-03-07 05:56:00,26.9,20.3,30.14,East,84,11.0,11.0,76,0.00,,,0.00,Wunderground v.1.15,2013-03-07 10:56:00,
2013-03-07 06:06:00,26.9,20.3,30.14,East,89,10.0,10.0,76,0.00,,,0.00,Wunderground v.1.15,2013-03-07 11:06:00,
2013-03-07 06:16:00,26.7,20.1,30.14,East,84,11.0,11.0,76,0.00,,,0.00,Wunderground v.1.15,2013-03-07 11:16:00,
2013-03-07 06:26:00,26.7,20.5,30.14,ENE,68,9.0,13.0,77,0.00,,,0.00,Wunderground v.1.15,2013-03-07 11:26:00,
2013-03-07 06:56:00,26.7,20.8,30.14,ENE,76,10.0,10.0,78,0.00,,,0.00,Wunderground v.1.15,2013-03-07 11:56:00,
2013-03-07 07:36:00,27.0,21.1,30.15,East,95,7.0,7.0,78,0.00,,,0.00,Wunderground v.1.15,2013-03-07 12:36:00,
2013-03-07 07:46:00,27.2,20.6,30.15,East,92,7.0,10.0,76,0.00,,,0.00,Wunderground v.1.15,2013-03-07 12:46:00,
2013-03-07 08:16:00,27.5,20.6,30.15,ENE,68,7.0,13.0,75,0.00,,,0.00,Wunderground v.1.15,2013-03-07 13:16:00,
2013-03-07 08:26:00,27.6,20.7,30.15,ESE,123,7.0,7.0,75,0.00,,,0.00,Wunderground v.1.15,2013-03-07 13:26:00,
2013-03-07 08:36:00,27.8,20.6,30.16,ESE,123,6.0,7.0,74,0.00,,,0.00,Wunderground v.1.15,2013-03-07 13:36:00,
2013-03-07 08:46:00,27.9,21.3,30.15,ESE,106,6.0,6.0,76,0.00,,,0.00,Wunderground v.1.15,2013-03-07 13:46:00,
2013-03-07 09:06:00,28.2,21.0,30.15,ENE,70,5.0,5.0,74,0.00,,,0.00,Wunderground v.1.15,2013-03-07 14:06:00,
2013-03-07 09:36:00,28.4,21.2,30.13,NE,43,7.0,7.0,74,0.00,,,0.00,Wunderground v.1.15,2013-03-07 14:36:00,
2013-03-07 09:46:00,28.7,21.5,30.13,East,84,6.0,12.0,74,0.00,,,0.00,Wunderground v.1.15,2013-03-07 14:46:00,
2013-03-07 10:06:00,28.4,21.2,30.13,ESE,107,8.0,8.0,74,0.00,,,0.00,Wunderground v.1.15,2013-03-07 15:06:00,
2013-03-07 10:16:00,28.2,20.7,30.13,ENE,64,9.0,9.0,73,0.00,,,0.00,Wunderground v.1.15,2013-03-07 15:16:00,
2013-03-07 10:26:00,28.2,20.7,30.13,East,90,7.0,13.0,73,0.00,,,0.00,Wunderground v.1.15,2013-03-07 15:26:00,
2013-03-07 11:06:00,28.8,20.9,30.14,East,92,9.0,9.0,72,0.00,,,0.00,Wunderground v.1.15,2013-03-07 16:06:00,
2013-03-07 11:16:00,28.8,21.2,30.14,ESE,112,7.0,7.0,73,0.00,,,0.00,Wunderground v.1.15,2013-03-07 16:16:00,
2013-03-07 11:26:00,29.0,21.1,30.14,East,82,6.0,6.0,72,0.00,,,0.00,Wunderground v.1.15,2013-03-07 16:26:00,
2013-03-07 12:06:00,29.5,21.3,30.13,East,79,9.0,9.0,71,0.00,,,0.00,Wunderground v.1.15,2013-03-07 17:06:00,
2013-03-07 12:16:00,30.0,21.4,30.12,NNE,33,4.0,4.0,70,0.00,,,0.00,Wunderground v.1.15,2013-03-07 17:16:00,
2013-03-07 12:36:00,29.7,21.1,30.11,ENE,78,7.0,9.0,70,0.00,,,0.00,Wunderground v.1.15,2013-03-07 17:36:00,
2013-03-07 12:46:00,29.8,21.2,30.11,East,86,6.0,11.0,70,0.00,,,0.00,Wunderground v.1.15,2013-03-07 17:46:00,
2013-03-07 12:56:00,30.0,21.4,30.11,ESE,102,9.0,15.0,70,0.00,,,0.00,Wunderground v.1.15,2013-03-07 17:56:00,
2013-03-07 13:06:00,30.1,21.2,30.10,ENE,78,8.0,17.0,69,0.00,,,0.00,Wunderground v.1.15,2013-03-07 18:06:00,
2013-03-07 13:16:00,30.0,21.1,30.10,ENE,72,10.0,10.0,69,0.00,,,0.00,Wunderground v.1.15,2013-03-07 18:16:00,
2013-03-07 13:26:00,30.1,20.8,30.10,NE,53,8.0,8.0,68,0.00,,,0.00,Wunderground v.1.15,2013-03-07 18:26:00,
2013-03-07 14:06:00,31.3,21.6,30.08,ESE,120,6.0,9.0,67,0.00,,,0.00,Wunderground v.1.15,2013-03-07 19:06:00,
2013-03-07 14:36:00,31.3,21.3,30.09,East,92,9.0,11.0,66,0.00,,,0.00,Wunderground v.1.15,2013-03-07 19:36:00,
2013-03-07 14:46:00,31.6,21.5,30.09,East,92,8.0,8.0,66,0.00,,,0.00,Wunderground v.1.15,2013-03-07 19:46:00,
2013-03-07 14:56:00,31.8,21.7,30.09,ESE,105,8.0,13.0,66,0.00,,,0.00,Wunderground v.1.15,2013-03-07 19:56:00,
2013-03-07 15:26:00,31.8,21.4,30.08,ENE,58,8.0,8.0,65,0.00,,,0.00,Wunderground v.1.15,2013-03-07 20:26:00,
2013-03-07 15:36:00,31.9,21.5,30.08,ESE,119,6.0,6.0,65,0.00,,,0.00,Wunderground v.1.15,2013-03-07 20:36:00,
2013-03-07 15:46:00,31.9,21.8,30.08,ESE,120,6.0,6.0,66,0.00,,,0.00,Wunderground v.1.15,2013-03-07 20:46:00,
2013-03-07 15:56:00,31.8,22.4,30.08,East,92,6.0,6.0,68,0.00,,,0.00,Wunderground v.1.15,2013-03-07 20:56:00,
2013-03-07 16:06:00,31.9,22.5,30.08,ENE,76,6.0,6.0,68,0.00,,,0.00,Wunderground v.1.15,2013-03-07 21:06:00,
2013-03-07 16:16:00,31.8,22.4,30.08,ENE,68,5.0,9.0,68,0.00,,,0.00,Wunderground v.1.15,2013-03-07 21:16:00,
2013-03-07 17:06:00,31.6,22.2,30.09,East,90,3.0,3.0,68,0.00,,,0.00,Wunderground v.1.15,2013-03-07 22:06:00,
2013-03-07 17:16:00,31.6,21.9,30.09,East,80,3.0,3.0,67,0.00,,,0.00,Wunderground v.1.15,2013-03-07 22:16:00,
2013-03-07 17:36:00,31.3,22.0,30.09,East,96,4.0,4.0,68,0.00,,,0.00,Wunderground v.1.15,2013-03-07 22:36:00,
2013-03-07 17:46:00,31.3,22.0,30.09,East,96,3.0,3.0,68,0.00,,,0.00,Wunderground v.1.15,2013-03-07 22:46:00,
2013-03-07 17:56:00,31.2,21.9,30.09,East,101,3.0,5.0,68,0.00,,,0.00,Wunderground v.1.15,2013-03-07 22:56:00,
2013-03-07 18:36:00,31.0,22.0,30.10,East,87,2.0,2.0,69,0.00,,,0.00,Wunderground v.1.15,2013-03-07 23:36:00,
2013-03-07 18:46:00,31.0,22.0,30.10,North,360,1.0,1.0,69,0.00,,,0.00,Wunderground v.1.15,2013-03-07 23:46:00,
2013-03-07 18:56:00,30.9,21.9,30.10,NE,55,2.0,2.0,69,0.00,,,0.00,Wunderground v.1.15,2013-03-07 23:56:00,
2013-03-07 19:16:00,30.9,21.6,30.10,NE,53,2.0,2.0,68,0.00,,,0.00,Wunderground v.1.15,2013-03-08 00:16:00,
2013-03-07 19:36:00,31.0,22.0,30.10,ENE,71,3.0,3.0,69,0.00,,,0.00,Wunderground v.1.15,2013-03-08 00:36:00,
2013-03-07 19:46:00,30.9,21.9,30.10,East,100,2.0,2.0,69,0.00,,,0.00,Wunderground v.1.15,2013-03-08 00:46:00,
2013-03-07 19:56:00,31.2,21.9,30.10,NE,43,2.0,2.0,68,0.00,,,0.00,Wunderground v.1.15,2013-03-08 00:56:00,
2013-03-07 20:36:00,30.7,22.1,30.08,NNE,16,2.0,6.0,70,0.00,,,0.00,Wunderground v.1.15,2013-03-08 01:36:00,
2013-03-07 20:46:00,31.0,22.0,30.08,ENE,76,2.0,3.0,69,0.00,,,0.00,Wunderground v.1.15,2013-03-08 01:46:00,
2013-03-07 20:56:00,31.0,22.0,30.08,ENE,64,3.0,3.0,69,0.00,,,0.00,Wunderground v.1.15,2013-03-08 01:56:00,
2013-03-07 21:36:00,30.6,21.6,30.06,ENE,73,1.0,3.0,69,0.00,,,0.00,Wunderground v.1.15,2013-03-08 02:36:00,
2013-03-07 21:46:00,30.6,21.6,30.06,East,80,2.0,4.0,69,0.00,,,0.00,Wunderground v.1.15,2013-03-08 02:46:00,
2013-03-07 21:56:00,30.4,21.4,30.06,East,82,2.0,2.0,69,0.00,,,0.00,Wunderground v.1.15,2013-03-08 02:56:00,
2013-03-07 22:06:00,30.3,21.7,30.06,ESE,113,2.0,2.0,70,0.00,,,0.00,Wunderground v.1.15,2013-03-08 03:06:00,
2013-03-07 22:16:00,30.4,21.1,30.06,ENE,70,2.0,2.0,68,0.00,,,0.00,Wunderground v.1.15,2013-03-08 03:16:00,
2013-03-07 22:26:00,30.4,21.1,30.06,East,90,2.0,3.0,68,0.00,,,0.00,Wunderground v.1.15,2013-03-08 03:26:00,
2013-03-07 23:06:00,30.6,20.6,30.06,ESE,104,3.0,5.0,66,0.00,,,0.00,Wunderground v.1.15,2013-03-08 04:06:00,
2013-03-07 23:16:00,30.7,20.3,30.06,East,86,4.0,4.0,65,0.00,,,0.00,Wunderground v.1.15,2013-03-08 04:16:00,
2013-03-07 23:26:00,30.7,20.7,30.06,East,83,3.0,4.0,66,0.00,,,0.00,Wunderground v.1.15,2013-03-08 04:26:00,
2013-03-07 23:36:00,30.9,20.1,30.05,East,83,6.0,6.0,64,0.00,,,0.00,Wunderground v.1.15,2013-03-08 04:36:00,
2013-03-07 23:46:00,31.0,19.9,30.04,ENE,62,4.0,4.0,63,0.00,,,0.00,Wunderground v.1.15,2013-03-08 04:46:00,
2013-03-07 23:56:00,30.6,20.2,30.04,North,5,3.0,6.0,65,0.00,,,0.00,Wunderground v.1.15,2013-03-08 04:56:00,